Home   Weather   Fairbanks   Past weeks

Flag for USA Past Weather in Fairbanks, Alaska, USA — Yesterday and Last 2 Weeks

Now
30 °F

Light snow. Ice fog.


Feels Like: 23 °F
Forecast: 25 / 31 °F
Wind: 8 mph from Southwest

Location: Wainwright U. S. Army Airfield

Current Time: Feb 25, 2017 at 10:44:20 pm

Latest Report: Feb 25, 2017 at 10:23 pm


Visibility: 1 mi

Pressure: 30.18 "Hg

Humidity: 93%

Dew Point: 28 °F

Location of FairbanksLocation

Past Weather in Fairbanks — Graph

°F

Fairbanks Temperature Yesterday

Maximum temperature yesterday: 34 °F (at 2:33 pm)
Minimum temperature yesterday: 23 °F (at 12:08 am)
Average temperature yesterday: 27 °F

High & Low Weather Summary for the Past Weeks

 TemperatureHumidityPressure
High36 °F (Feb 14, 4:58 pm)100% (Feb 14, 10:18 pm)30.49 "Hg (Feb 14, 10:18 pm)
Low-41 °F (Feb 12, 8:58 am)61% (Feb 21, 2:58 pm)28.68 "Hg (Feb 14, 2:58 pm)
Average4 °F83%29.81 "Hg
* Reported Feb 10 9:58 pm — Feb 25 9:38 pm, Fairbanks, Weather by CustomWeather, © 2017

Note: Actual official high and low records may vary slightly from our data, if they occured in-between our weather recording intervals... More about our weather records

Advertising

Fairbanks Weather History for the Previous 24 Hours

Scroll right to see more
 ConditionsComfort  
Time TempWeatherWind HumidityBarometerVisibility
9:38 pm
Sat, Feb 25
28 °FLight snow. Ice fog.8 mph100%30.20 "Hg1 mi
9:23 pm28 °FLight snow. Ice fog.8 mph100%30.21 "Hg2 mi
8:58 pm29 °FLight snow. Ice fog.8 mph96%30.24 "Hg2 mi
8:43 pm28 °FLight snow. Ice fog.9 mph100%30.22 "Hg2 mi
8:33 pm28 °FLight snow. Ice fog.9 mph100%30.23 "Hg2 mi
8:13 pm28 °FLight snow. Ice fog.12 mph100%30.23 "Hg4 mi
7:58 pm29 °FLight snow. Ice fog.9 mph95%30.27 "Hg5 mi
6:58 pm29 °FLight snow. Overcast.9 mph95%30.30 "Hg7 mi
6:35 pm30 °FLight snow. Ice fog.8 mph93%30.29 "Hg2 mi
6:20 pm30 °FLight snow. Ice fog.9 mph93%30.30 "Hg3 mi
6:05 pm30 °FLight snow. Ice fog.8 mph93%30.31 "Hg6 mi
5:59 pm30 °FLow clouds.10 mph93%30.31 "Hg7 mi
5:32 pm30 °FIce fog.10 mph93%30.32 "Hg2 mi
5:23 pm30 °FLight snow. Ice fog.9 mph93%30.33 "Hg2 mi
4:58 pm31 °FLight snow. Ice fog.10 mph93%30.37 "Hg5 mi
4:30 pm32 °FLight snow. Ice fog.6 mph87%30.36 "Hg6 mi
4:10 pm32 °FLight snow. Mostly cloudy.15 mph80%30.37 "Hg9 mi
3:58 pm32 °FBroken clouds.7 mph80%30.39 "Hg8 mi
2:58 pm32 °FOvercast.7 mph79%30.42 "Hg9 mi
1:58 pm32 °FOvercast.7 mph81%30.45 "Hg9 mi
1:42 pm32 °FOvercast.6 mph80%30.43 "Hg8 mi
1:31 pm32 °FLight snow. Overcast.6 mph80%30.43 "Hg9 mi
1:18 pm32 °FCloudy.8 mph80%30.44 "Hg8 mi
12:58 pm31 °FMostly cloudy.8 mph81%30.46 "Hg9 mi
12:32 pm32 °FLight snow. Overcast.8 mph80%30.45 "Hg9 mi
11:58 am31 °FOvercast.9 mph84%30.47 "Hg8 mi
10:58 am29 °FMostly cloudy.No wind82%30.47 "Hg9 mi
10:03 am28 °FPartly sunny.6 mph86%30.45 "Hg9 mi
9:58 am29 °FScattered clouds.5 mph82%30.47 "Hg9 mi
9:08 am28 °FBroken clouds.10 mph80%30.45 "Hg10 mi
8:58 am30 °FMostly cloudy.14 mph82%30.47 "Hg10 mi
8:08 am32 °FOvercast.16 mph80%30.44 "Hg10 mi
7:58 am31 °FOvercast.17 mph85%30.46 "Hg9 mi
6:58 am31 °FOvercast.18 mph85%30.45 "Hg10 mi
5:58 am31 °FOvercast.15 mph85%30.43 "Hg10 mi
4:58 am31 °FOvercast.13 mph83%30.40 "Hg10 mi
4:18 am32 °FMostly cloudy.15 mph87%30.37 "Hg10 mi
3:58 am31 °FOvercast.14 mph88%30.38 "Hg10 mi
3:44 am30 °FLight snow. Mostly cloudy.17 mph93%30.36 "Hg9 mi
3:34 am30 °FLight snow. Mostly cloudy.16 mph86%30.35 "Hg10 mi
3:17 am32 °FMostly cloudy.15 mph87%30.35 "Hg10 mi
2:58 am31 °FLight snow. Overcast.15 mph90%30.36 "Hg8 mi
2:27 am32 °FLight snow. Mostly cloudy.16 mph87%30.33 "Hg9 mi
2:22 am32 °FLight snow. Mostly cloudy.15 mph87%30.33 "Hg9 mi
1:58 am32 °FOvercast.14 mph86%30.34 "Hg10 mi
1:35 am32 °FMostly cloudy.13 mph87%30.31 "Hg10 mi
1:03 am32 °FLight snow. Mostly cloudy.13 mph87%30.30 "Hg10 mi
12:58 am32 °FMostly cloudy.16 mph88%30.32 "Hg10 mi
12:42 am32 °FOvercast.14 mph87%30.29 "Hg10 mi
12:31 am32 °FLight snow. Mostly cloudy.12 mph87%30.29 "Hg10 mi
12:18 am30 °FMostly cloudy.9 mph93%30.29 "Hg10 mi
11:58 pm
Fri, Feb 24
31 °FLight snow. Overcast.9 mph86%30.30 "Hg9 mi
10:58 pm29 °FMostly cloudy.No wind88%30.29 "Hg10 mi
Weather by CustomWeather, © 2017

See weather overviewHow to use our weather pages